Home > Weather > Prince George > Past weeks

Flag for Canada Weather for the Past 2 Weeks in Prince George, British Columbia, Canada

Now
64 °F

Sunny.


Feels Like: 64 °F
Forecast: 32 / 74 °F
Wind: 10 mph from South

Location: Prince George

Current Time: May 6, 2016 at 12:33:57 PM

Latest Report: May 6, 2016 at 12:00 PM


Visibility: 9 mi

Pressure: 30.23 "Hg (28.26 "Hg at 573m altitude)

Humidity: 24%

Dew Point: 27 °F

Location of Prince GeorgeLocation

Historic Weather in Prince George — Graph

°F

Prince George Temperature Yesterday

Maximum temperature yesterday: 61 °F (at 4:00 PM)
Minimum temperature yesterday: 25 °F (at 6:00 AM)
Average temperature yesterday: 45 °F

High & Low Weather Summary for the Past Weeks

 TemperatureHumidityPressure
High79 °F (May 2, 5:00 PM)100% (Apr 22, 11:00 PM)30.41 "Hg (Apr 22, 11:00 PM)
Low25 °F (May 5, 6:00 AM)18% (May 2, 5:00 PM)29.64 "Hg (Apr 21, 4:00 PM)
Average49 °F66%30.02 "Hg
* Reported Apr 21 11:00 AM — May 6 11:00 AM, Prince George, Weather by CustomWeather, © 2016

Note: Actual official high and low records may vary slightly from our data, if they occured in-between our weather recording intervals... More about our weather records

Advertising

Prince George Weather History for the Previous 24 Hours

Scroll right to see more
 ConditionsComfort  
Time TempWeatherWind HumidityBarometerVisibility
11:00 AM
Fri, May 6
61 °FSunny.8 mph31%30.25 "Hg9 mi
10:00 AM54 °FScattered clouds.3 mph44%30.27 "Hg9 mi
9:00 AM48 °FSunny.10 mph50%30.29 "Hg9 mi
8:00 AM41 °FSunny.3 mph66%30.29 "Hg9 mi
7:00 AM36 °FSunny.No wind81%30.28 "Hg9 mi
6:00 AM30 °FClear.2 mph86%30.29 "Hg9 mi
5:00 AM30 °FClear.No wind93%30.29 "Hg9 mi
4:00 AM32 °FClear.2 mph87%30.28 "Hg9 mi
3:00 AM34 °FClear.3 mph81%30.27 "Hg9 mi
2:00 AM32 °FClear.2 mph87%30.29 "Hg9 mi
1:00 AM34 °FClear.2 mph87%30.28 "Hg9 mi
12:00 AM37 °FClear.2 mph75%30.27 "Hg9 mi
11:00 PM
Thu, May 5
39 °FClear.3 mph75%30.27 "Hg9 mi
10:00 PM43 °FClear.2 mph61%30.25 "Hg9 mi
9:00 PM46 °FSunny.No wind57%30.23 "Hg9 mi
8:00 PM59 °FSunny.3 mph27%30.20 "Hg9 mi
7:00 PM61 °FSunny.2 mph23%30.20 "Hg9 mi
6:00 PM61 °FSunny.5 mph25%30.20 "Hg9 mi
5:00 PM61 °FSunny.3 mph23%30.20 "Hg9 mi
4:00 PM61 °FSunny.7 mph23%30.22 "Hg9 mi
3:00 PM59 °FSunny.2 mph21%30.23 "Hg9 mi
2:00 PM57 °FSunny.2 mph25%30.24 "Hg9 mi
1:00 PM55 °FSunny.6 mph28%30.24 "Hg9 mi
12:00 PM54 °FSunny.5 mph33%30.25 "Hg9 mi
Weather by CustomWeather, © 2016

See weather overviewHow to use our weather pages